Year,Month,Day,Hour,Minute,Value (Times are PST for temperature in C)
2019,10,06,00,00,28.80
2019,10,06,00,01,28.80
2019,10,06,00,02,28.80
2019,10,06,00,03,28.80
2019,10,06,00,04,28.80
2019,10,06,00,05,28.80
2019,10,06,00,06,28.70
2019,10,06,00,07,28.70
2019,10,06,00,08,28.70
2019,10,06,00,09,28.60
2019,10,06,00,10,28.60
2019,10,06,00,11,28.60
2019,10,06,00,12,28.50
2019,10,06,00,13,28.50
2019,10,06,00,14,28.50
2019,10,06,00,15,28.40
2019,10,06,00,16,28.40
2019,10,06,00,17,28.40
2019,10,06,00,18,28.40
2019,10,06,00,19,28.30
2019,10,06,00,20,28.30
2019,10,06,00,21,28.30
2019,10,06,00,22,28.30
2019,10,06,00,23,28.20
2019,10,06,00,24,28.20
2019,10,06,00,25,28.20
2019,10,06,00,26,28.20
2019,10,06,00,27,28.20
2019,10,06,00,28,28.10
2019,10,06,00,29,28.10
2019,10,06,00,30,28.10
2019,10,06,00,31,28.00
2019,10,06,00,32,28.00
2019,10,06,00,33,27.90
2019,10,06,00,34,27.90
2019,10,06,00,35,27.80
2019,10,06,00,36,27.80
2019,10,06,00,37,27.80
2019,10,06,00,38,27.80
2019,10,06,00,39,27.70
2019,10,06,00,40,27.70
2019,10,06,00,41,27.70
2019,10,06,00,42,27.60
2019,10,06,00,43,27.60
2019,10,06,00,44,27.60
2019,10,06,00,45,27.50
2019,10,06,00,46,27.50
2019,10,06,00,47,27.40
2019,10,06,00,48,27.40
2019,10,06,00,49,27.40
2019,10,06,00,50,27.40
2019,10,06,00,51,27.40
2019,10,06,00,52,27.40
2019,10,06,00,53,27.50
2019,10,06,00,54,27.60
2019,10,06,00,55,27.60
2019,10,06,00,56,27.70
2019,10,06,00,57,27.60
2019,10,06,00,58,27.60
2019,10,06,00,59,27.60
2019,10,06,01,00,27.50
2019,10,06,01,01,27.50
2019,10,06,01,02,27.50
2019,10,06,01,03,27.40
2019,10,06,01,04,27.40
2019,10,06,01,05,27.40
2019,10,06,01,06,27.40
2019,10,06,01,07,27.40
2019,10,06,01,08,27.50
2019,10,06,01,09,27.50
2019,10,06,01,10,27.50
2019,10,06,01,11,27.40
2019,10,06,01,12,27.40
2019,10,06,01,13,27.40
2019,10,06,01,14,27.40
2019,10,06,01,15,27.30
2019,10,06,01,16,27.30
2019,10,06,01,17,27.30
2019,10,06,01,18,27.20
2019,10,06,01,19,27.20
2019,10,06,01,20,27.20
2019,10,06,01,21,27.20
2019,10,06,01,22,27.20
2019,10,06,01,23,27.30
2019,10,06,01,24,27.30
2019,10,06,01,25,27.40
2019,10,06,01,26,27.40
2019,10,06,01,27,27.40
2019,10,06,01,28,27.40
2019,10,06,01,29,27.40
2019,10,06,01,30,27.30
2019,10,06,01,31,27.30
2019,10,06,01,32,27.20
2019,10,06,01,33,27.20
2019,10,06,01,34,27.20
2019,10,06,01,35,27.20
2019,10,06,01,36,27.20
2019,10,06,01,37,27.10
2019,10,06,01,38,27.10
2019,10,06,01,39,27.10
2019,10,06,01,40,27.10
2019,10,06,01,41,27.10
2019,10,06,01,42,27.10
2019,10,06,01,43,27.00
2019,10,06,01,44,27.00
2019,10,06,01,45,26.90
2019,10,06,01,46,26.90
2019,10,06,01,47,26.90
2019,10,06,01,48,26.90
2019,10,06,01,49,26.90
2019,10,06,01,50,26.90
2019,10,06,01,51,27.00
2019,10,06,01,52,27.00
2019,10,06,01,53,27.00
2019,10,06,01,54,27.00
2019,10,06,01,55,27.00
2019,10,06,01,56,27.00
2019,10,06,01,57,27.00
2019,10,06,01,58,27.00
2019,10,06,01,59,27.00
2019,10,06,02,00,27.00
2019,10,06,02,01,27.00
2019,10,06,02,02,27.00
2019,10,06,02,03,27.10
2019,10,06,02,04,27.10
2019,10,06,02,05,27.10
2019,10,06,02,06,27.20
2019,10,06,02,07,27.20
2019,10,06,02,08,27.30
2019,10,06,02,09,27.30
2019,10,06,02,10,27.30
2019,10,06,02,11,27.30
2019,10,06,02,12,27.30
2019,10,06,02,13,27.30
2019,10,06,02,14,27.30
2019,10,06,02,15,27.30
2019,10,06,02,16,27.30
2019,10,06,02,17,27.30
2019,10,06,02,18,27.30
2019,10,06,02,19,27.30
2019,10,06,02,20,27.30
2019,10,06,02,21,27.20
2019,10,06,02,22,27.20
2019,10,06,02,23,27.20
2019,10,06,02,24,27.20
2019,10,06,02,25,27.20
2019,10,06,02,26,27.30
2019,10,06,02,27,27.30
2019,10,06,02,28,27.40
2019,10,06,02,29,27.50
2019,10,06,02,30,27.50
2019,10,06,02,31,27.50
2019,10,06,02,32,27.50
2019,10,06,02,33,27.50
2019,10,06,02,34,27.50
2019,10,06,02,35,27.50
2019,10,06,02,36,27.40
2019,10,06,02,37,27.40
2019,10,06,02,38,27.40
2019,10,06,02,39,27.40
2019,10,06,02,40,27.30
2019,10,06,02,41,27.30
2019,10,06,02,42,27.20
2019,10,06,02,43,27.20
2019,10,06,02,44,27.20
2019,10,06,02,45,27.10
2019,10,06,02,46,27.10
2019,10,06,02,47,27.10
2019,10,06,02,48,27.10
2019,10,06,02,49,27.00
2019,10,06,02,50,27.00
2019,10,06,02,51,27.00
2019,10,06,02,52,26.90
2019,10,06,02,53,26.90
2019,10,06,02,54,26.80
2019,10,06,02,55,26.80
2019,10,06,02,56,26.70
2019,10,06,02,57,26.70
2019,10,06,02,58,26.60
2019,10,06,02,59,26.60
2019,10,06,03,00,26.50
2019,10,06,03,01,26.50
2019,10,06,03,02,26.40
2019,10,06,03,03,26.40
2019,10,06,03,04,26.40
2019,10,06,03,05,26.40
2019,10,06,03,06,26.30
2019,10,06,03,07,26.30
2019,10,06,03,08,26.30
2019,10,06,03,09,26.30
2019,10,06,03,10,26.30
2019,10,06,03,11,26.30
2019,10,06,03,12,26.30
2019,10,06,03,13,26.30
2019,10,06,03,14,26.30
2019,10,06,03,15,26.20
2019,10,06,03,16,26.20
2019,10,06,03,17,26.20
2019,10,06,03,18,26.20
2019,10,06,03,19,26.20
2019,10,06,03,20,26.20
2019,10,06,03,21,26.20
2019,10,06,03,22,26.20
2019,10,06,03,23,26.10
2019,10,06,03,24,26.10
2019,10,06,03,25,26.10
2019,10,06,03,26,26.10
2019,10,06,03,27,26.10
2019,10,06,03,28,26.10
2019,10,06,03,29,26.10
2019,10,06,03,30,26.10
2019,10,06,03,31,26.10
2019,10,06,03,32,26.10
2019,10,06,03,33,26.20
2019,10,06,03,34,26.20
2019,10,06,03,35,26.30
2019,10,06,03,36,26.30
2019,10,06,03,37,26.30
2019,10,06,03,38,26.40
2019,10,06,03,39,26.40
2019,10,06,03,40,26.50
2019,10,06,03,41,26.50
2019,10,06,03,42,26.60
2019,10,06,03,43,26.60
2019,10,06,03,44,26.70
2019,10,06,03,45,26.70
2019,10,06,03,46,26.70
2019,10,06,03,47,26.70
2019,10,06,03,48,26.80
2019,10,06,03,49,26.80
2019,10,06,03,50,26.80
2019,10,06,03,51,26.80
2019,10,06,03,52,26.80
2019,10,06,03,53,26.80
2019,10,06,03,54,26.90
2019,10,06,03,55,26.90
2019,10,06,03,56,26.90
2019,10,06,03,57,26.90
2019,10,06,03,58,26.90
2019,10,06,03,59,26.90
2019,10,06,04,00,26.90
2019,10,06,04,01,26.90
2019,10,06,04,02,26.90
2019,10,06,04,03,26.90
2019,10,06,04,04,26.90
2019,10,06,04,05,26.90
2019,10,06,04,06,26.80
2019,10,06,04,07,26.80
2019,10,06,04,08,26.80
2019,10,06,04,09,26.80
2019,10,06,04,10,26.70
2019,10,06,04,11,26.70
2019,10,06,04,12,26.70
2019,10,06,04,13,26.70
2019,10,06,04,14,26.60
2019,10,06,04,15,26.60
2019,10,06,04,16,26.60
2019,10,06,04,17,26.60
2019,10,06,04,18,26.60
2019,10,06,04,19,26.60
2019,10,06,04,20,26.60
2019,10,06,04,21,26.60
2019,10,06,04,22,26.60
2019,10,06,04,23,26.60
2019,10,06,04,24,26.70
2019,10,06,04,25,26.70
2019,10,06,04,26,26.80
2019,10,06,04,27,26.80
2019,10,06,04,28,26.80
2019,10,06,04,29,26.90
2019,10,06,04,30,26.90
2019,10,06,04,31,26.90
2019,10,06,04,32,26.90
2019,10,06,04,33,26.90
2019,10,06,04,34,26.90
2019,10,06,04,35,26.90
2019,10,06,04,36,26.90
2019,10,06,04,37,26.90
2019,10,06,04,38,26.80
2019,10,06,04,39,26.80
2019,10,06,04,40,26.70
2019,10,06,04,41,26.70
2019,10,06,04,42,26.60
2019,10,06,04,43,26.60
2019,10,06,04,44,26.60
2019,10,06,04,45,26.60
2019,10,06,04,46,26.60
2019,10,06,04,47,26.60
2019,10,06,04,48,26.60
2019,10,06,04,49,26.60
2019,10,06,04,50,26.60
2019,10,06,04,51,26.60
2019,10,06,04,52,26.60
2019,10,06,04,53,26.60
2019,10,06,04,54,26.60
2019,10,06,04,55,26.70
2019,10,06,04,56,26.70
2019,10,06,04,57,26.80
2019,10,06,04,58,26.80
2019,10,06,04,59,26.80
2019,10,06,05,00,26.80
2019,10,06,05,01,26.80
2019,10,06,05,02,26.80
2019,10,06,05,03,26.80
2019,10,06,05,04,26.80
2019,10,06,05,05,26.70
2019,10,06,05,06,26.70
2019,10,06,05,07,26.70
2019,10,06,05,08,26.70
2019,10,06,05,09,26.70
2019,10,06,05,10,26.70
2019,10,06,05,11,26.60
2019,10,06,05,12,26.60
2019,10,06,05,13,26.60
2019,10,06,05,14,26.60
2019,10,06,05,15,26.60
2019,10,06,05,16,26.60
2019,10,06,05,17,26.60
2019,10,06,05,18,26.60
2019,10,06,05,19,26.60
2019,10,06,05,20,26.60
2019,10,06,05,21,26.60
2019,10,06,05,22,26.60
2019,10,06,05,23,26.60
2019,10,06,05,24,26.70
2019,10,06,05,25,26.70
2019,10,06,05,26,26.80
2019,10,06,05,27,26.80
2019,10,06,05,28,26.80
2019,10,06,05,29,26.90
2019,10,06,05,30,26.90
2019,10,06,05,31,26.90
2019,10,06,05,32,26.90
2019,10,06,05,33,26.90
2019,10,06,05,34,26.90
2019,10,06,05,35,26.90
2019,10,06,05,36,26.90
2019,10,06,05,37,26.90
2019,10,06,05,38,26.90
2019,10,06,05,39,26.90
2019,10,06,05,40,26.90
2019,10,06,05,41,26.90
2019,10,06,05,42,26.90
2019,10,06,05,43,26.90
2019,10,06,05,44,26.90
2019,10,06,05,45,26.90
2019,10,06,05,46,26.90
2019,10,06,05,47,26.90
2019,10,06,05,48,26.90
2019,10,06,05,49,26.90
2019,10,06,05,50,26.90
2019,10,06,05,51,26.90
2019,10,06,05,52,26.90
2019,10,06,05,53,26.90
2019,10,06,05,54,26.90
2019,10,06,05,55,26.90
2019,10,06,05,56,26.90
2019,10,06,05,57,26.90
2019,10,06,05,58,26.90
2019,10,06,05,59,26.90
2019,10,06,06,00,26.90
2019,10,06,06,01,26.90
2019,10,06,06,02,26.90
2019,10,06,06,03,26.90
2019,10,06,06,04,26.90
2019,10,06,06,05,26.90
2019,10,06,06,06,26.90
2019,10,06,06,07,26.90
2019,10,06,06,08,26.90
2019,10,06,06,09,26.90
2019,10,06,06,10,26.90
2019,10,06,06,11,27.00
2019,10,06,06,12,27.00
2019,10,06,06,13,27.00
2019,10,06,06,14,27.00
2019,10,06,06,15,27.00
2019,10,06,06,16,27.00
2019,10,06,06,17,27.00
2019,10,06,06,18,27.00
2019,10,06,06,19,27.00
2019,10,06,06,20,27.00
2019,10,06,06,21,27.00
2019,10,06,06,22,27.10
2019,10,06,06,23,27.10
2019,10,06,06,24,27.10
2019,10,06,06,25,27.10
2019,10,06,06,26,27.10
2019,10,06,06,27,27.10
2019,10,06,06,28,27.20
2019,10,06,06,29,27.20
2019,10,06,06,30,27.20
2019,10,06,06,31,27.30
2019,10,06,06,32,27.40
2019,10,06,06,33,27.40
2019,10,06,06,34,27.50
2019,10,06,06,35,27.50
2019,10,06,06,36,27.60
2019,10,06,06,37,27.60
2019,10,06,06,38,27.60
2019,10,06,06,39,27.60
2019,10,06,06,40,27.70
2019,10,06,06,41,27.70
2019,10,06,06,42,27.70
2019,10,06,06,43,27.70
2019,10,06,06,44,27.70
2019,10,06,06,45,27.60
2019,10,06,06,46,27.60
2019,10,06,06,47,27.60
2019,10,06,06,48,27.60
2019,10,06,06,49,27.60
2019,10,06,06,50,27.60
2019,10,06,06,51,27.60
2019,10,06,06,52,27.60
2019,10,06,06,53,27.60
2019,10,06,06,54,27.60
2019,10,06,06,55,27.60
2019,10,06,06,56,27.60
2019,10,06,06,57,27.60
2019,10,06,06,58,27.60
2019,10,06,06,59,27.70
2019,10,06,07,00,27.70
2019,10,06,07,01,27.70
2019,10,06,07,02,27.70
2019,10,06,07,03,27.70
2019,10,06,07,04,27.70
2019,10,06,07,05,27.70
2019,10,06,07,06,27.70
2019,10,06,07,07,27.70
2019,10,06,07,08,27.70
2019,10,06,07,09,27.70
2019,10,06,07,10,27.70
2019,10,06,07,11,27.70
2019,10,06,07,12,27.80
2019,10,06,07,13,27.80
2019,10,06,07,14,27.80
2019,10,06,07,15,27.90
2019,10,06,07,16,27.90
2019,10,06,07,17,27.90
2019,10,06,07,18,27.90
2019,10,06,07,19,27.90
2019,10,06,07,20,27.90
2019,10,06,07,21,27.90
2019,10,06,07,22,27.90
2019,10,06,07,23,28.00
2019,10,06,07,24,28.00
2019,10,06,07,25,28.10
2019,10,06,07,26,28.10
2019,10,06,07,27,28.10
2019,10,06,07,28,28.20
2019,10,06,07,29,28.20
2019,10,06,07,30,28.20
2019,10,06,07,31,28.30
2019,10,06,07,32,28.30
2019,10,06,07,33,28.30
2019,10,06,07,34,28.40
2019,10,06,07,35,28.40
2019,10,06,07,36,28.40
2019,10,06,07,37,28.40
2019,10,06,07,38,28.40
2019,10,06,07,39,28.40
2019,10,06,07,40,28.40
2019,10,06,07,41,28.40
2019,10,06,07,42,28.40
2019,10,06,07,43,28.40
2019,10,06,07,44,28.40
2019,10,06,07,45,28.40
2019,10,06,07,46,28.40
2019,10,06,07,47,28.40
2019,10,06,07,48,28.40
2019,10,06,07,49,28.40
2019,10,06,07,50,28.40
2019,10,06,07,51,28.40
2019,10,06,07,52,28.40
2019,10,06,07,53,28.40
2019,10,06,07,54,28.40
2019,10,06,07,55,28.50
2019,10,06,07,56,28.50
2019,10,06,07,57,28.50
2019,10,06,07,58,28.50
2019,10,06,07,59,28.50
2019,10,06,08,00,28.50
2019,10,06,08,01,28.50
2019,10,06,08,02,28.50
2019,10,06,08,03,28.60
2019,10,06,08,04,28.60
2019,10,06,08,05,28.60
2019,10,06,08,06,28.60
2019,10,06,08,07,28.60
2019,10,06,08,08,28.60
2019,10,06,08,09,28.60
2019,10,06,08,10,28.60
2019,10,06,08,11,28.60
2019,10,06,08,12,28.70
2019,10,06,08,13,28.70
2019,10,06,08,14,28.70
2019,10,06,08,15,28.70
2019,10,06,08,16,28.70
2019,10,06,08,17,28.70
2019,10,06,08,18,28.80
2019,10,06,08,19,28.80
2019,10,06,08,20,28.80
2019,10,06,08,21,28.80
2019,10,06,08,22,28.80
2019,10,06,08,23,28.80
2019,10,06,08,24,28.80
2019,10,06,08,25,28.70
2019,10,06,08,26,28.70
2019,10,06,08,27,28.70
2019,10,06,08,28,28.70
2019,10,06,08,29,28.70
2019,10,06,08,30,28.80
2019,10,06,08,31,28.80
2019,10,06,08,32,28.80
2019,10,06,08,33,28.80
2019,10,06,08,34,28.80
2019,10,06,08,35,28.80
2019,10,06,08,36,28.80
2019,10,06,08,37,28.80
2019,10,06,08,38,28.80
2019,10,06,08,39,28.80
2019,10,06,08,40,28.80
2019,10,06,08,41,28.80
2019,10,06,08,42,28.90
2019,10,06,08,43,28.90
2019,10,06,08,44,28.90
2019,10,06,08,45,28.90
2019,10,06,08,46,28.90
2019,10,06,08,47,28.90
2019,10,06,08,48,28.90
2019,10,06,08,49,28.90
2019,10,06,08,50,28.90
2019,10,06,08,51,28.90
2019,10,06,08,52,29.00
2019,10,06,08,53,29.00
2019,10,06,08,54,29.00
2019,10,06,08,55,29.00
2019,10,06,08,56,29.00
2019,10,06,08,57,29.00
2019,10,06,08,58,29.00
2019,10,06,08,59,29.00
2019,10,06,09,00,29.10
2019,10,06,09,01,29.10
2019,10,06,09,02,29.10
2019,10,06,09,03,29.10
2019,10,06,09,04,29.10
2019,10,06,09,05,29.10
2019,10,06,09,06,29.10
2019,10,06,09,07,29.10
2019,10,06,09,08,29.20
2019,10,06,09,09,29.20
2019,10,06,09,10,29.20
2019,10,06,09,11,29.20
2019,10,06,09,12,29.20
2019,10,06,09,13,29.30
2019,10,06,09,14,29.30
2019,10,06,09,15,29.30
2019,10,06,09,16,29.30
2019,10,06,09,17,29.30
2019,10,06,09,18,29.40
2019,10,06,09,19,29.40
2019,10,06,09,20,29.40
2019,10,06,09,21,29.40
2019,10,06,09,22,29.40
2019,10,06,09,23,29.40
2019,10,06,09,24,29.40
2019,10,06,09,25,29.40
2019,10,06,09,26,29.50
2019,10,06,09,27,29.50
2019,10,06,09,28,29.50
2019,10,06,09,29,29.60
2019,10,06,09,30,29.60
2019,10,06,09,31,29.60
2019,10,06,09,32,29.70
2019,10,06,09,33,29.70
2019,10,06,09,34,29.70
2019,10,06,09,35,29.70
2019,10,06,09,36,29.70
2019,10,06,09,37,29.80
2019,10,06,09,38,29.80
2019,10,06,09,39,29.80
2019,10,06,09,40,29.80
2019,10,06,09,41,29.90
2019,10,06,09,42,29.90
2019,10,06,09,43,29.90
2019,10,06,09,44,29.90
2019,10,06,09,45,29.90
2019,10,06,09,46,29.90
2019,10,06,09,47,29.90
2019,10,06,09,48,29.90
2019,10,06,09,49,30.00
2019,10,06,09,50,30.00
2019,10,06,09,51,30.10
2019,10,06,09,52,30.10
2019,10,06,09,53,30.10
2019,10,06,09,54,30.20
2019,10,06,09,55,30.20
2019,10,06,09,56,30.20
2019,10,06,09,57,30.30
2019,10,06,09,58,30.30
2019,10,06,09,59,30.30
2019,10,06,10,00,30.40
2019,10,06,10,01,30.40
2019,10,06,10,02,30.40
2019,10,06,10,03,30.40
2019,10,06,10,04,30.40
2019,10,06,10,05,30.40
2019,10,06,10,06,30.50
2019,10,06,10,07,30.50
2019,10,06,10,08,30.50
2019,10,06,10,09,30.50
2019,10,06,10,10,30.50
2019,10,06,10,11,30.50
2019,10,06,10,12,30.60
2019,10,06,10,13,30.60
2019,10,06,10,14,30.60
2019,10,06,10,15,30.70
2019,10,06,10,16,30.70
2019,10,06,10,17,30.70
2019,10,06,10,18,30.80
2019,10,06,10,19,30.80
2019,10,06,10,20,30.80
2019,10,06,10,21,30.80
2019,10,06,10,22,30.80
2019,10,06,10,23,30.80
2019,10,06,10,24,30.80
2019,10,06,10,25,30.80
2019,10,06,10,26,30.80
2019,10,06,10,27,30.90
2019,10,06,10,28,30.90
2019,10,06,10,29,30.90
2019,10,06,10,30,30.90
2019,10,06,10,31,31.00
2019,10,06,10,32,31.00
2019,10,06,10,33,31.00
2019,10,06,10,34,31.10
2019,10,06,10,35,31.10
2019,10,06,10,36,31.10
2019,10,06,10,37,31.10
2019,10,06,10,38,31.10
2019,10,06,10,39,31.20
2019,10,06,10,40,31.20
2019,10,06,10,41,31.20
2019,10,06,10,42,31.20
2019,10,06,10,43,31.20
2019,10,06,10,44,31.20
2019,10,06,10,45,31.20
2019,10,06,10,46,31.20
2019,10,06,10,47,31.20
2019,10,06,10,48,31.30
2019,10,06,10,49,31.30
2019,10,06,10,50,31.30
2019,10,06,10,51,31.30
2019,10,06,10,52,31.30
2019,10,06,10,53,31.30
2019,10,06,10,54,31.40
2019,10,06,10,55,31.40
2019,10,06,10,56,31.40
2019,10,06,10,57,31.40
2019,10,06,10,58,31.40
2019,10,06,10,59,31.40
2019,10,06,11,00,31.40
2019,10,06,11,01,31.50
2019,10,06,11,02,31.50
2019,10,06,11,03,31.50
2019,10,06,11,04,31.50
2019,10,06,11,05,31.50
2019,10,06,11,06,31.50
2019,10,06,11,07,31.50
2019,10,06,11,08,31.50
2019,10,06,11,09,31.50
2019,10,06,11,10,31.50
2019,10,06,11,11,31.40
2019,10,06,11,12,31.40
2019,10,06,11,13,31.40
2019,10,06,11,14,31.30
2019,10,06,11,15,31.30
2019,10,06,11,16,31.30
2019,10,06,11,17,31.30
2019,10,06,11,18,31.30
2019,10,06,11,19,31.30
2019,10,06,11,20,31.30
2019,10,06,11,21,31.30
2019,10,06,11,22,31.40
2019,10,06,11,23,31.40
2019,10,06,11,24,31.40
2019,10,06,11,25,31.40
2019,10,06,11,26,31.40
2019,10,06,11,27,31.30
2019,10,06,11,28,31.30
2019,10,06,11,29,31.30
2019,10,06,11,30,31.40
2019,10,06,11,31,31.40
2019,10,06,11,32,31.40
2019,10,06,11,33,31.50
2019,10,06,11,34,31.50
2019,10,06,11,35,31.60
2019,10,06,11,36,31.60
2019,10,06,11,37,31.60
2019,10,06,11,38,31.70
2019,10,06,11,39,31.70
2019,10,06,11,40,31.70
2019,10,06,11,41,31.70
2019,10,06,11,42,31.80
2019,10,06,11,43,31.80
2019,10,06,11,44,31.80
2019,10,06,11,45,31.80
2019,10,06,11,46,31.80
2019,10,06,11,47,31.80
2019,10,06,11,48,31.80
2019,10,06,11,49,31.90
2019,10,06,11,50,31.90
2019,10,06,11,51,31.90
2019,10,06,11,52,31.90
2019,10,06,11,53,32.00
2019,10,06,11,54,32.00
2019,10,06,11,55,32.10
2019,10,06,11,56,32.10
2019,10,06,11,57,32.20
2019,10,06,11,58,32.20
2019,10,06,11,59,32.20
2019,10,06,12,00,32.20
2019,10,06,12,01,32.20
2019,10,06,12,02,32.20
2019,10,06,12,03,32.20
2019,10,06,12,04,32.20
2019,10,06,12,05,32.20
2019,10,06,12,06,32.20
2019,10,06,12,07,32.30
2019,10,06,12,08,32.30
2019,10,06,12,09,32.40
2019,10,06,12,10,32.40
2019,10,06,12,11,32.50
2019,10,06,12,12,32.50
2019,10,06,12,13,32.60
2019,10,06,12,14,32.60
2019,10,06,12,15,32.60
2019,10,06,12,16,32.60
2019,10,06,12,17,32.60
2019,10,06,12,18,32.60
2019,10,06,12,19,32.60
2019,10,06,12,20,32.60
2019,10,06,12,21,32.60
2019,10,06,12,22,32.70
2019,10,06,12,23,32.70
2019,10,06,12,24,32.70
2019,10,06,12,25,32.70
2019,10,06,12,26,32.80
2019,10,06,12,27,32.80
2019,10,06,12,28,32.80
2019,10,06,12,29,32.80
2019,10,06,12,30,32.80
2019,10,06,12,31,32.80
2019,10,06,12,32,32.80
2019,10,06,12,33,32.80
2019,10,06,12,34,32.80
2019,10,06,12,35,32.90
2019,10,06,12,36,32.90
2019,10,06,12,37,32.90
2019,10,06,12,38,32.90
2019,10,06,12,39,32.90
2019,10,06,12,40,32.90
2019,10,06,12,41,32.90
2019,10,06,12,42,32.90
2019,10,06,12,43,32.90
2019,10,06,12,44,32.90
2019,10,06,12,45,32.90
2019,10,06,12,46,32.90
2019,10,06,12,47,33.00
2019,10,06,12,48,33.00
2019,10,06,12,49,33.10
2019,10,06,12,50,33.10
2019,10,06,12,51,33.20
2019,10,06,12,52,33.20
2019,10,06,12,53,33.20
2019,10,06,12,54,33.30
2019,10,06,12,55,33.30
2019,10,06,12,56,33.30
2019,10,06,12,57,33.30
2019,10,06,12,58,33.30
2019,10,06,12,59,33.30
2019,10,06,13,00,33.30
2019,10,06,13,01,33.30
2019,10,06,13,02,33.30
2019,10,06,13,03,33.30
2019,10,06,13,04,33.30
2019,10,06,13,05,33.30
2019,10,06,13,06,33.30
2019,10,06,13,07,33.40
2019,10,06,13,08,33.40
2019,10,06,13,09,33.40
2019,10,06,13,10,33.40
2019,10,06,13,11,33.40
2019,10,06,13,12,33.40
2019,10,06,13,13,33.40
2019,10,06,13,14,33.40
2019,10,06,13,15,33.40
2019,10,06,13,16,33.40
2019,10,06,13,17,33.30
2019,10,06,13,18,33.30
2019,10,06,13,19,33.40
2019,10,06,13,20,33.40
2019,10,06,13,21,33.40
2019,10,06,13,22,33.40
2019,10,06,13,23,33.40
2019,10,06,13,24,33.40
2019,10,06,13,25,33.40
2019,10,06,13,26,33.40
2019,10,06,13,27,33.40
2019,10,06,13,28,33.40
2019,10,06,13,29,33.40
2019,10,06,13,30,33.40
2019,10,06,13,31,33.50
2019,10,06,13,32,33.50
2019,10,06,13,33,33.40
2019,10,06,13,34,33.40
2019,10,06,13,35,33.40
2019,10,06,13,36,33.40
2019,10,06,13,37,33.40
2019,10,06,13,38,33.40
2019,10,06,13,39,33.40
2019,10,06,13,40,33.40
2019,10,06,13,41,33.40
2019,10,06,13,42,33.40
2019,10,06,13,43,33.50
2019,10,06,13,44,33.50
2019,10,06,13,45,33.50
2019,10,06,13,46,33.50
2019,10,06,13,47,33.60
2019,10,06,13,48,33.60
2019,10,06,13,49,33.60
2019,10,06,13,50,33.50
2019,10,06,13,51,33.60
2019,10,06,13,52,33.60
2019,10,06,13,53,33.60
2019,10,06,13,54,33.60
2019,10,06,13,55,33.60
2019,10,06,13,56,33.60
2019,10,06,13,57,33.60
2019,10,06,13,58,33.60
2019,10,06,13,59,33.60
2019,10,06,14,00,33.60
2019,10,06,14,01,33.60
2019,10,06,14,02,33.60
2019,10,06,14,03,33.60
2019,10,06,14,04,33.60
2019,10,06,14,05,33.60
2019,10,06,14,06,33.60
2019,10,06,14,07,33.60
2019,10,06,14,08,33.60
2019,10,06,14,09,33.60
2019,10,06,14,10,33.60
2019,10,06,14,11,33.50
2019,10,06,14,12,33.50
2019,10,06,14,13,33.50
2019,10,06,14,14,33.40
2019,10,06,14,15,33.40
2019,10,06,14,16,33.40
2019,10,06,14,17,33.40
2019,10,06,14,18,33.40
2019,10,06,14,19,33.40
2019,10,06,14,20,33.40
2019,10,06,14,21,33.40
2019,10,06,14,22,33.40
2019,10,06,14,23,33.40
2019,10,06,14,24,33.40
2019,10,06,14,25,33.40
2019,10,06,14,26,33.40
2019,10,06,14,27,33.40
2019,10,06,14,28,33.40
2019,10,06,14,29,33.40
2019,10,06,14,30,33.40
2019,10,06,14,31,33.40
2019,10,06,14,32,33.40
2019,10,06,14,33,33.40
2019,10,06,14,34,33.40
2019,10,06,14,35,33.40
2019,10,06,14,36,33.40
2019,10,06,14,37,33.40
2019,10,06,14,38,33.40
2019,10,06,14,39,33.40
2019,10,06,14,40,33.40
2019,10,06,14,41,33.40
2019,10,06,14,42,33.40
2019,10,06,14,43,33.40
2019,10,06,14,44,33.40
2019,10,06,14,45,33.50
2019,10,06,14,46,33.50
2019,10,06,14,47,33.50
2019,10,06,14,48,33.50
2019,10,06,14,49,33.50
2019,10,06,14,50,33.50
2019,10,06,14,51,33.50
2019,10,06,14,52,33.50
2019,10,06,14,53,33.50
2019,10,06,14,54,33.50
2019,10,06,14,55,33.50
2019,10,06,14,56,33.50
2019,10,06,14,57,33.50
2019,10,06,14,58,33.50
2019,10,06,14,59,33.50
2019,10,06,15,00,33.50
2019,10,06,15,01,33.50
2019,10,06,15,02,33.50
2019,10,06,15,03,33.50
2019,10,06,15,04,33.50
2019,10,06,15,05,33.50
2019,10,06,15,06,33.50
2019,10,06,15,07,33.50
2019,10,06,15,08,33.50
2019,10,06,15,09,33.40
2019,10,06,15,10,33.40
2019,10,06,15,11,33.40
2019,10,06,15,12,33.30
2019,10,06,15,13,33.30
2019,10,06,15,14,33.30
2019,10,06,15,15,33.20
2019,10,06,15,16,33.20
2019,10,06,15,17,33.20
2019,10,06,15,18,33.20
2019,10,06,15,19,33.20
2019,10,06,15,20,33.20
2019,10,06,15,21,33.20
2019,10,06,15,22,33.20
2019,10,06,15,23,33.30
2019,10,06,15,24,33.30
2019,10,06,15,25,33.30
2019,10,06,15,26,33.30
2019,10,06,15,27,33.30
2019,10,06,15,28,33.30
2019,10,06,15,29,33.30
2019,10,06,15,30,33.30
2019,10,06,15,31,33.40
2019,10,06,15,32,33.40
2019,10,06,15,33,33.40
2019,10,06,15,34,33.40
2019,10,06,15,35,33.40
2019,10,06,15,36,33.40
2019,10,06,15,37,33.40
2019,10,06,15,38,33.40
2019,10,06,15,39,33.50
2019,10,06,15,40,33.50
2019,10,06,15,41,33.50
2019,10,06,15,42,33.50
2019,10,06,15,43,33.50
2019,10,06,15,44,33.50
2019,10,06,15,45,33.50
2019,10,06,15,46,33.50
2019,10,06,15,47,33.50
2019,10,06,15,48,33.50
2019,10,06,15,49,33.50
2019,10,06,15,50,33.50
2019,10,06,15,51,33.50
2019,10,06,15,52,33.50
2019,10,06,15,53,33.50
2019,10,06,15,54,33.50
2019,10,06,15,55,33.60
2019,10,06,15,56,33.60
2019,10,06,15,57,33.60
2019,10,06,15,58,33.60
2019,10,06,15,59,33.60
2019,10,06,16,00,33.60
2019,10,06,16,01,33.50
2019,10,06,16,02,33.50
2019,10,06,16,03,33.40
2019,10,06,16,04,33.40
2019,10,06,16,05,33.40
2019,10,06,16,06,33.40
2019,10,06,16,07,33.30
2019,10,06,16,08,33.30
2019,10,06,16,09,33.30
2019,10,06,16,10,33.30
2019,10,06,16,11,33.30
2019,10,06,16,12,33.20
2019,10,06,16,13,33.20
2019,10,06,16,14,33.20
2019,10,06,16,15,33.20
2019,10,06,16,16,33.20
2019,10,06,16,17,33.20
2019,10,06,16,18,33.20
2019,10,06,16,19,33.20
2019,10,06,16,20,33.20
2019,10,06,16,21,33.20
2019,10,06,16,22,33.20
2019,10,06,16,23,33.20
2019,10,06,16,24,33.20
2019,10,06,16,25,33.20
2019,10,06,16,26,33.20
2019,10,06,16,27,33.20
2019,10,06,16,28,33.20
2019,10,06,16,29,33.20
2019,10,06,16,30,33.20
2019,10,06,16,31,33.20
2019,10,06,16,32,33.20
2019,10,06,16,33,33.20
2019,10,06,16,34,33.20
2019,10,06,16,35,33.20
2019,10,06,16,36,33.20
2019,10,06,16,37,33.20
2019,10,06,16,38,33.20
2019,10,06,16,39,33.20
2019,10,06,16,40,33.20
2019,10,06,16,41,33.20
2019,10,06,16,42,33.20
2019,10,06,16,43,33.20
2019,10,06,16,44,33.20
2019,10,06,16,45,33.20
2019,10,06,16,46,33.20
2019,10,06,16,47,33.20
2019,10,06,16,48,33.20
2019,10,06,16,49,33.20
2019,10,06,16,50,33.10
2019,10,06,16,51,33.10
2019,10,06,16,52,33.10
2019,10,06,16,53,33.10
2019,10,06,16,54,33.10
2019,10,06,16,55,33.10
2019,10,06,16,56,33.00
2019,10,06,16,57,33.00
2019,10,06,16,58,33.00
2019,10,06,16,59,33.00
2019,10,06,17,00,33.00
2019,10,06,17,01,33.00
2019,10,06,17,02,33.00
2019,10,06,17,03,33.00
2019,10,06,17,04,32.90
2019,10,06,17,05,32.90
2019,10,06,17,06,32.90
2019,10,06,17,07,32.90
2019,10,06,17,08,32.90
2019,10,06,17,09,32.90
2019,10,06,17,10,32.90
2019,10,06,17,11,32.90
2019,10,06,17,12,32.90
2019,10,06,17,13,32.90
2019,10,06,17,14,32.90
2019,10,06,17,15,32.90
2019,10,06,17,16,32.90
2019,10,06,17,17,32.90
2019,10,06,17,18,32.90
2019,10,06,17,19,32.90